SL-14 DEB, 45311

Orbit data source: Space-Track

SL-14 DEB, 45311 is space debris in LEO originally from a launch on Thu, 15 Aug 1991 UTC launched from the Plesetsk Missile And Space Complex (PKMTR). Debris objects in space refer to the collection of defunct objects orbiting the Earth. Examples of debris include non-operational satellites, rocket bodies, and fragments generated from explosions, collisions, or faulty payload assembly.

Loading next visibility...
Identifier
45311, 1991-056AZ
Orbit
LEO
Country
Flag of CISCIS
Related business
Manufacturer
Unknown
Mission
Spacecraft
Bus & Motor
Unknown
Mass
Unknown
Launch date (UTC)
1991-08-15 (34 years ago)
Launch vehicle
Unknown
Launch site
Plesetsk Missile And Space Complex (PKMTR)
Object type
Payload
Rocket body
Debris
Shape & HBR
Unknown shape, 0.1 m
Radar Cross Section
Small (<0.1 m²)

Expand to show TLE details & history
Last TLE update: 11 hours ago

TLE from 11 hours ago
0 SL-14 DEB
1 45311U 91056AZ  26035.47832266  .00000091  00000-0  19782-3 0  9999
2 45311  82.5466 227.8390 0017820  79.3356 280.9773 13.18816208286111
Epoch: 2026-02-04T11:28Z
TLE epoch observation values (Epoch: 2026-02-04T11:28:47.077Z)
Latitude
-0.00005°
Longitude
-79.00149°
Altitude
1,189.51 km
Speed
7.26 km/s
True Right ascension
15h 11m 21s
True Declination
0° 00' 00"
Sunlit
Object was in daylight at epoch
Visualization orbit readout
Latitude
Unknown
Longitude
Unknown
Altitude
Unknown
Speed
Unknown
Apparent Right ascension
Unknown
Apparent Declination
Unknown
Sunlit
N/A
Visualization observer readout
Local Sidereal Time
00:47:59
Azimuth
Unknown
Elevation
Unknown
Doppler factor
Unknown
Orbital elements
Apogee altitude
1,199.967 km
Perigee altitude
1,173.007 km
Semi-major axis
7,564.624 km
Eccentricity
0.00178
Inclination
82.5466°
RAAN
227.839°
Arg. of periapsis
79.3356°
True anomaly
280.77675°
Mean anomaly
280.9773°
Eccentric anomaly
280.87703°
Mean motion
3.29885 °/min
Orbital period
109.13 mins
BSTAR
0.00019782
Loading maneuver chart data...
Computing Atmospheric mass density...
Loading historical data...
Loading historical data...
Loading historical data...
Loading historical data...
Loading historical data...
Loading historical data...
Loading historical data...

Documentation

Showing up to 5 results
|